Lexington, KY

3:09 PM EDT en Septiembre 24, 2017 (GMT -0400)
The Island Weather | | Change Station

Alt 968 ft 38.00 °N, 84.46 °W | Updated 30 minutes ago

Despejado
Despejado
86.7 ° F
Sensación térmica 113 ° F
N
5.0
Viento Variable Viento desde Este

Hoy
Alta -- | Baja -- ° F
--% Posibilidad de precipitaciones
Ayer
Alta -- | Baja -- ° F
Precip. -- pul
Presión 30.04 pul
Visibilidad 10.0 Millas
Nubes Despejado
Índice de calor 113 ° F
Punto de rocío 86 ° F
Humedad 98%
Precipitaciones 0.00 pul
Espesor de la nieve No disponible.
7:27 AM 7:31 PM
Creciente, 20% visible
METAR KLEX 241854Z 11007KT 10SM CLR 31/15 A3007 RMK AO2 SLP173 T03110150
Presión 30.04 pul
Visibilidad 10.0 Millas
Nubes Despejado
Índice de calor 113 ° F
Punto de rocío 86 ° F
Humedad 98%
Precipitaciones 0.00 pul
Espesor de la nieve No disponible.
7:27 AM 7:31 PM
Creciente, 20% visible
METAR KLEX 241854Z 11007KT 10SM CLR 31/15 A3007 RMK AO2 SLP173 T03110150

Get Severe Weather Alerts

Thanks for signing up!

Be on the lookout for a verification email in your inbox.

You'll start receiving the daily forecast at 6 AM.

×

10-Day Weather Forecast

Almanac

Astronomía

Sep. 24, 2017 Salida Puesta
Hora real
Crepúsculo civil
Crepúsculo náutico
Crepúsculo astronómico
Luna
Horas de luz
Horas de luz
Tomorrow will be .
, % of the Moon is Illuminated

Extremos de hoy

Máximos del estado Bajos del estado

Community

WunderPhotos

Category 6

Welcome to Category 6. This is the collective home for Weather Underground's featured writeups by Dr. Jeff Masters (right), Bob Henson (left), Chris Burt, and other regular contributors.

Nearby

Calidad del aire

  Calidad del aire Índice AQ Contaminante
Not available.

Grosos de nieve

Estación Profundido Altura

Actividad de terremotos

Ciudad Distance Mag. Tiempo y dato
Magnitud mínima muestra es 2,5.

Temperaturas de aguas costeras

Lugar Temperatura

Stations

Estaciones meteorológicas cercanas

Ubicación de la estación Temp. Vientos helados Punto de rocío Humedad Viento Precip. Alt Actualizado Tipo
                   

Watches & Warnings

There are currently no watches in effect.